Location: St. Louis
(38.6270°N, 90.1994°W)
Time: 16:57:22
(UTC-06:00)

Courier 1B - Pass Details

Date: 03 December 2021
Orbit: 962 x 1209 km, 28.3° (Epoch: 26 January)

Event Time Altitude Azimuth Distance (km) Brightness Sun altitude
Rises 17:29:59 0° 243° (WSW) 4,016 13.0 -9.8°
Reaches altitude 10° 17:33:07 10° 235° (SW) 3,021 11.5 -10.4°
Maximum altitude 17:39:40 34° 173° (S) 1,707 8.9 -11.6°
Drops below altitude 10° 17:45:52 10° 111° (ESE) 2,858 9.5 -12.7°
Enters shadow 17:46:20 - 109° (ESE) 3,003 9.6 -12.8°
